TimeEST,TemperatureF,Dew PointF,Humidity,Sea Level PressureIn,VisibilityMPH,Wind Direction,Wind SpeedMPH,Gust SpeedMPH,PrecipitationIn,Events,Conditions,WindDirDegrees,DateUTC
12:55 AM,35.6,21.2,56,29.90,10.0,West,8.1,-,N/A,,Overcast,270,2013-02-01 05:55:00
1:15 AM,37.4,21.2,52,29.88,10.0,WSW,12.7,-,N/A,,Overcast,250,2013-02-01 06:15:00
1:35 AM,37.4,21.2,52,29.88,10.0,West,15.0,-,N/A,Rain,Light Rain,260,2013-02-01 06:35:00
1:55 AM,39.2,23.0,52,29.88,10.0,WSW,16.1,-,N/A,,Overcast,250,2013-02-01 06:55:00
2:15 AM,39.2,23.0,52,29.89,10.0,West,15.0,-,N/A,,Overcast,260,2013-02-01 07:15:00
2:35 AM,37.4,24.8,60,29.90,10.0,West,19.6,34.5,N/A,,Overcast,270,2013-02-01 07:35:00
2:55 AM,35.6,24.8,65,29.90,10.0,West,21.9,36.8,N/A,Rain,Light Rain,260,2013-02-01 07:55:00
3:15 AM,33.8,28.4,81,29.92,4.0,West,13.8,-,N/A,Snow,Light Snow,260,2013-02-01 08:15:00
3:35 AM,30.2,28.4,93,29.94,1.2,West,19.6,24.2,N/A,Snow,Light Snow,280,2013-02-01 08:35:00
3:55 AM,30.2,26.6,86,29.96,4.0,West,15.0,-,N/A,Snow,Light Snow,270,2013-02-01 08:55:00
4:15 AM,28.4,23.0,80,29.98,4.0,WNW,12.7,34.5,N/A,Snow,Light Snow,300,2013-02-01 09:15:00
4:35 AM,26.6,19.4,74,30.00,10.0,WNW,15.0,-,N/A,Rain,Freezing Rain,290,2013-02-01 09:35:00
4:55 AM,26.6,15.8,64,30.03,10.0,WNW,18.4,29.9,N/A,,Overcast,290,2013-02-01 09:55:00
5:15 AM,24.8,14.0,64,30.05,10.0,WNW,17.3,-,N/A,,Mostly Cloudy,300,2013-02-01 10:15:00
5:35 AM,24.8,12.2,59,30.08,10.0,WSW,9.2,-,N/A,,Mostly Cloudy,250,2013-02-01 10:35:00
6:15 AM,21.2,6.8,54,30.12,10.0,West,15.0,23.0,N/A,,Mostly Cloudy,270,2013-02-01 11:15:00
6:35 AM,19.4,6.8,58,30.13,10.0,West,12.7,-,N/A,,Scattered Clouds,270,2013-02-01 11:35:00
7:15 AM,19.4,6.8,58,30.17,10.0,West,10.4,24.2,N/A,,Overcast,260,2013-02-01 12:15:00
7:35 AM,19.4,8.6,63,30.18,10.0,West,10.4,-,N/A,Snow,Light Snow,260,2013-02-01 12:35:00
8:15 AM,17.6,3.2,53,30.22,10.0,Variable,6.9,-,N/A,,Mostly Cloudy,0,2013-02-01 13:15:00
8:35 AM,17.6,3.2,53,30.24,10.0,WNW,11.5,-,N/A,,Clear,300,2013-02-01 13:35:00
8:55 AM,17.6,3.2,53,30.25,10.0,West,13.8,-,N/A,,Clear,280,2013-02-01 13:55:00
9:15 AM,17.6,3.2,53,30.26,10.0,West,17.3,-,N/A,,Clear,270,2013-02-01 14:15:00
9:35 AM,17.6,1.4,49,30.26,10.0,NW,13.8,-,N/A,,Clear,310,2013-02-01 14:35:00
10:15 AM,17.6,3.2,53,30.28,10.0,NW,9.2,-,N/A,,Clear,310,2013-02-01 15:15:00
10:35 AM,17.6,3.2,53,30.30,10.0,NW,17.3,-,N/A,,Clear,310,2013-02-01 15:35:00
10:55 AM,17.6,3.2,53,30.30,10.0,NNW,10.4,-,N/A,,Partly Cloudy,330,2013-02-01 15:55:00
11:15 AM,19.4,5.0,54,30.31,10.0,WNW,9.2,-,N/A,,Scattered Clouds,300,2013-02-01 16:15:00
11:35 AM,19.4,3.2,49,30.32,10.0,NW,10.4,-,N/A,,Mostly Cloudy,310,2013-02-01 16:35:00
11:55 AM,19.4,5.0,54,30.31,10.0,Variable,4.6,-,N/A,,Scattered Clouds,0,2013-02-01 16:55:00
12:15 PM,21.2,6.8,54,30.31,10.0,West,8.1,-,N/A,,Mostly Cloudy,280,2013-02-01 17:15:00
12:35 PM,19.4,6.8,58,30.31,10.0,WNW,8.1,-,N/A,,Mostly Cloudy,290,2013-02-01 17:35:00
12:55 PM,21.2,6.8,54,30.30,10.0,West,11.5,-,N/A,,Mostly Cloudy,280,2013-02-01 17:55:00
1:15 PM,21.2,8.6,58,30.30,10.0,West,11.5,-,N/A,,Mostly Cloudy,280,2013-02-01 18:15:00
1:35 PM,24.8,8.6,50,30.30,10.0,WSW,13.8,-,N/A,,Overcast,240,2013-02-01 18:35:00
1:55 PM,23.0,8.6,54,30.30,10.0,WNW,10.4,-,N/A,,Mostly Cloudy,290,2013-02-01 18:55:00
2:15 PM,23.0,6.8,50,30.29,10.0,WNW,11.5,-,N/A,,Scattered Clouds,290,2013-02-01 19:15:00
2:35 PM,23.0,5.0,46,30.29,10.0,NW,11.5,-,N/A,,Partly Cloudy,310,2013-02-01 19:35:00
2:55 PM,23.0,6.8,50,30.29,10.0,Variable,6.9,-,N/A,,Clear,0,2013-02-01 19:55:00
3:15 PM,23.0,6.8,50,30.29,10.0,WSW,11.5,-,N/A,,Clear,250,2013-02-01 20:15:00
3:35 PM,24.8,6.8,46,30.29,10.0,SW,10.4,-,N/A,,Scattered Clouds,220,2013-02-01 20:35:00
3:55 PM,24.8,6.8,46,30.29,10.0,WSW,9.2,-,N/A,,Partly Cloudy,250,2013-02-01 20:55:00
4:15 PM,24.8,6.8,46,30.29,10.0,WSW,9.2,-,N/A,,Partly Cloudy,250,2013-02-01 21:15:00
4:35 PM,24.8,6.8,46,30.29,10.0,West,9.2,-,N/A,,Partly Cloudy,280,2013-02-01 21:35:00
4:55 PM,24.8,6.8,46,30.29,10.0,West,8.1,-,N/A,,Clear,260,2013-02-01 21:55:00
5:15 PM,24.8,6.8,46,30.29,10.0,WNW,9.2,-,N/A,,Clear,290,2013-02-01 22:15:00
5:35 PM,23.0,6.8,50,30.30,10.0,West,9.2,-,N/A,,Clear,270,2013-02-01 22:35:00
5:55 PM,21.2,6.8,54,30.28,10.0,West,8.1,-,N/A,,Clear,260,2013-02-01 22:55:00
6:15 PM,21.2,6.8,54,30.29,10.0,WSW,8.1,-,N/A,,Clear,250,2013-02-01 23:15:00
6:35 PM,21.2,6.8,54,30.29,10.0,West,5.8,-,N/A,,Clear,280,2013-02-01 23:35:00
6:55 PM,21.2,6.8,54,30.30,10.0,West,6.9,-,N/A,,Clear,260,2013-02-01 23:55:00
7:15 PM,21.2,6.8,54,30.32,10.0,WSW,6.9,-,N/A,,Clear,240,2013-02-02 00:15:00
7:35 PM,21.2,6.8,54,30.33,10.0,WNW,4.6,-,N/A,,Clear,290,2013-02-02 00:35:00
7:55 PM,19.4,6.8,58,30.33,10.0,West,3.5,-,N/A,,Clear,270,2013-02-02 00:55:00
8:15 PM,21.2,6.8,54,30.33,10.0,Calm,Calm,-,N/A,,Clear,0,2013-02-02 01:15:00
8:35 PM,19.4,8.6,63,30.34,10.0,WSW,3.5,-,N/A,,Clear,250,2013-02-02 01:35:00
8:55 PM,19.4,8.6,63,30.33,10.0,Calm,Calm,-,N/A,,Clear,0,2013-02-02 01:55:00
9:15 PM,17.6,10.4,73,30.34,10.0,Calm,Calm,-,N/A,,Clear,0,2013-02-02 02:15:00
9:35 PM,17.6,10.4,73,30.33,10.0,Calm,Calm,-,N/A,,Clear,0,2013-02-02 02:35:00
9:55 PM,17.6,10.4,73,30.33,10.0,Calm,Calm,-,N/A,,Clear,0,2013-02-02 02:55:00
10:15 PM,15.8,10.4,79,30.33,10.0,Calm,Calm,-,N/A,,Clear,0,2013-02-02 03:15:00
10:35 PM,15.8,10.4,79,30.32,10.0,Calm,Calm,-,N/A,,Clear,0,2013-02-02 03:35:00
10:55 PM,17.6,10.4,73,30.33,10.0,Calm,Calm,-,N/A,,Clear,0,2013-02-02 03:55:00
11:15 PM,15.8,10.4,79,30.33,10.0,Calm,Calm,-,N/A,,Clear,0,2013-02-02 04:15:00
11:35 PM,15.8,10.4,79,30.33,10.0,Calm,Calm,-,N/A,,Clear,0,2013-02-02 04:35:00
11:55 PM,15.8,10.4,79,30.34,10.0,Calm,Calm,-,N/A,,Clear,0,2013-02-02 04:55:00